Location: Bakersfield
(35.3730°N, 119.0180°W)
Time: 19:03:50
(UTC-07:00)

Daily predictions for brighter satellites

Satellite Brightness Start Highest point End
(mag) Time Altitude Azimuth Time Altitude Azimuth Time Altitude Azimuth
Chandra Rocket (1) 4.4 19:59:03 10° WSW 20:04:43 58° S 20:27:46 10° ESE
Cosmos 2278 Rocket 2.5 20:21:32 10° NNW 20:27:12 73° WSW 20:32:49 10° SSE
BREEZE-M R/B 4.5 20:24:43 10° W 20:27:19 25° SW 20:31:20 10° SSE
ATLAS 3B R/B 4.2 20:30:21 10° SE 20:34:53 17° ESE 20:39:23 10° ENE
Abrixas rocket 3.5 20:32:29 10° NW 20:35:38 34° NNE 20:38:48 10° E
CZ-2D R/B 3.3 20:31:47 10° SSE 20:35:40 88° ENE 20:39:35 10° N
Cosmos 1666 4.0 20:34:15 10° NNE 20:37:31 25° ENE 20:40:47 10° SE
Cosmos 2058 Rocket 3.4 20:34:36 10° N 20:38:49 47° E 20:43:01 10° SSE
Cosmos 1500 3.9 20:35:13 10° NNW 20:39:03 58° W 20:42:51 10° S
ERS-1 Rocket 3.4 20:38:01 10° SE 20:42:47 45° ENE 20:47:33 10° N
APEX 4.5 20:38:58 10° N 20:42:58 38° ENE 20:47:58 10° SE
Cosmos 2251 Rocket 4.4 20:38:09 10° SSW 20:43:22 57° WNW 20:48:38 10° N
SL-16 R/B 2.6 20:38:44 10° SSW 20:44:22 70° WNW 20:50:01 10° NNE
ISS -2.7 20:42:14 10° SSW 20:45:14 34° SE 20:48:14 10° ENE
Cosmos 2233 Rocket 4.4 20:39:07 10° NNW 20:45:19 69° W 20:51:26 10° S
YAOGAN 11 4.1 20:41:01 10° SSE 20:45:21 68° ENE 20:49:39 10° N
Atlas Centaur 2 3.2 20:38:44 10° SW 20:45:28 47° SSE 20:53:19 10° E
Cosmos 2285 Rocket 4.1 20:42:09 10° N 20:48:27 64° ENE 20:54:44 10° SSE
PSLV R/B 3.6 20:46:22 10° WSW 20:49:53 74° NNW 20:53:27 10° ENE
Envisat 4.1 20:45:44 10° SE 20:49:56 28° ENE 20:54:11 10° NNE
Cosmos 2098 Rocket 4.2 20:46:50 10° NNW 20:50:15 40° W 20:54:27 10° SSW
Cosmos 1743 3.0 20:50:16 10° NNW 20:54:05 68° W 20:57:51 10° S
Cosmos 1110 Rocket 4.1 20:49:49 10° NNW 20:55:06 79° WSW 21:00:20 10° SSE
deb Chang Zheng 4 3.6 20:50:49 10° NNE 20:55:11 63° E 20:59:29 10° S
Cosmos 1939 Rocket 3.8 20:52:34 12° SE 20:55:56 34° ENE 20:59:41 10° N
Cosmos 1464 Rocket 4.0 20:50:58 10° N 20:57:05 65° E 21:03:12 10° SSE
Cosmos 1606 Rocket 4.2 20:54:31 10° NNW 20:58:53 59° W 21:03:10 10° S
CZ-4 DEB 3.9 20:58:20 10° S 21:01:26 44° W 21:04:32 10° NNW
ATLAS CENTAUR Rocket 4.0 20:56:14 10° SW 21:01:57 53° SSE 21:34:03 10° E
ATLAS CENTAUR Rocket 4.0 20:56:15 10° SW 21:01:57 53° SSE 21:34:03 10° E
ATLAS CENTAUR Rocket 4.0 20:56:14 10° SW 21:01:58 53° SSE 21:34:03 10° E
Lacrosse 5 rocket 4.4 21:00:03 10° WNW 21:02:16 15° NW 21:04:33 10° N
H-2A R/B 2.1 20:59:32 12° SSE 21:03:27 60° ENE 21:07:43 10° N
SPOT 5 3.6 21:04:12 16° SE 21:07:01 31° ENE 21:10:50 10° N
ALOS 3.1 21:03:16 10° S 21:07:47 49° W 21:12:18 10° NNW
COSMOS 2455 2.9 21:05:37 10° S 21:11:24 53° ESE 21:17:14 10° NE
Cosmos 1626 Rocket 3.6 21:07:22 10° S 21:11:45 62° E 21:16:08 10° NNE
Cosmos 1603 3.6 21:07:51 10° SSW 21:13:27 76° ESE 21:19:03 10° NNE
YAOGAN 6 4.5 21:14:14 15° E 21:15:19 17° ENE 21:17:45 10° NNE
Cosmos 2034 Rocket 4.0 21:10:05 10° N 21:16:27 70° E 21:22:13 13° SSE
Meteor 2-9 Rocket 4.3 21:15:21 10° N 21:21:05 83° W 21:26:55 10° S
Cosmos 2228 3.1 21:17:22 10° N 21:21:48 82° W 21:25:40 13° S
BREEZE-M DEB (TANK) 3.6 21:21:25 10° WSW 21:26:59 49° NW 21:29:21 10° NE
PSLV R/B 3.4 21:27:44 36° SE 21:28:36 49° ENE 21:31:38 10° N
Cosmos 1943 3.4 21:32:15 14° S 21:36:54 47° ESE 21:42:18 10° NE
CZ-2C R/B 3.4 21:36:23 10° SW 21:37:49 15° W 21:39:17 10° WNW
Lacrosse 4 Rocket 2.5 21:39:17 24° E 21:39:17 24° E 21:41:52 10° NE
H-2A R/B 3.9 21:38:18 13° E 21:39:37 14° ENE 21:42:08 10° NNE
MetOp-A 4.3 21:37:00 26° SE 21:39:53 57° ENE 21:45:08 10° N
Delta 168 4.4 21:40:43 10° SW 21:42:58 20° S 21:42:58 20° S
Cosmos 1943 Rocket 4.3 21:41:56 10° NNE 21:43:59 12° NE 21:46:01 10° ENE
Cosmos 1190 Rocket 4.3 21:43:21 28° SSE 21:45:40 45° ESE 21:50:43 10° NNE
SeaSat 1 2.5 21:44:08 32° SE 21:46:25 69° ENE 21:51:20 10° NNW
SPOT 1/Viking Rocket 3.9 21:45:58 31° SE 21:47:59 47° ENE 21:52:55 10° N
UNK 4.2 21:47:04 10° NNE 21:52:33 87° WNW 21:58:20 10° SSW
CZ-4B R/B 3.4 21:53:22 10° NNE 21:58:30 87° E 22:02:04 21° SSW
Cosmos 1461 3.6 21:57:32 10° NW 22:01:34 44° WSW 22:02:45 34° SSW
Cosmos 1758 Rocket 4.0 22:04:10 41° E 22:04:10 41° E 22:08:16 10° NNE
Abrixas rocket 4.0 22:09:46 10° WNW 22:12:14 25° WSW 22:12:14 25° WSW
ARGOS 3.1 22:14:46 47° SE 22:16:17 71° ENE 22:21:42 10° N
Cosmos 1825 Rocket 3.8 22:20:09 40° SSW 22:21:35 65° W 22:26:00 10° N
ISS -0.6 22:19:10 10° W 22:21:44 21° NNW 22:24:19 10° NNE
CZ-4C R/B 3.7 22:22:05 56° ENE 22:22:05 56° ENE 22:26:03 10° N
Cosmos 2369 Rocket 2.2 22:18:26 10° NNW 22:24:06 68° ENE 22:25:15 53° SE
ATLAS 3B R/B 2.9 22:17:03 10° SSW 22:24:46 86° WNW 22:32:24 10° NNE
NOAA 11 4.1 22:31:39 58° SSE 22:32:48 89° WSW 22:38:15 10° NNW
Cosmos 407 Rocket 3.5 22:31:34 42° SSW 22:33:23 80° WNW 22:38:38 10° NNE
Atlas Centaur 2 3.0 22:27:14 10° WSW 22:34:58 62° S 22:38:00 41° ESE
SL-08 RB Rocket 3.6 22:37:33 78° SW 22:37:44 81° WSW 22:42:17 10° NNW
USA 234 3.2 22:35:50 47° SE 22:37:56 83° NE 22:44:32 10° NW
Cosmos 1953 3.9 22:40:08 10° NNE 22:42:23 26° NE 22:42:23 26° NE
Landsat 7 3.7 22:45:23 86° ENE 22:45:23 86° ENE 22:50:08 10° NNW
Milstar 3 Cent rocket 4.4 22:44:49 10° SW 22:45:13 10° SW 22:45:13 10° SW
Spot 4 4.3 22:48:23 47° NE 22:48:23 47° NE 22:52:35 10° N
YAOGAN 6 4.4 22:48:44 25° W 22:48:44 25° W 22:51:49 10° NW
COSMOS 2406 3.7 22:51:28 43° ENE 22:51:28 43° ENE 22:55:57 10° NNE
Cosmos 2263 4.0 22:44:50 10° NNW 22:50:28 81° ENE 22:50:53 75° SE
Cosmos 1954 Rocket 3.9 22:52:49 85° SSE 22:52:56 87° ESE 22:58:16 10° NNE
Nadezhda 4 Rocket 4.2 22:53:12 53° E 22:53:24 53° E 22:59:32 10° NNE
Cosmos 1346 Rocket 4.5 22:59:54 27° W 23:00:10 27° WNW 23:03:33 10° NNW
Terra 1.9 23:01:40 72° N 23:01:40 72° N 23:05:56 10° NNW
USA 238 DEB 3.6 23:01:03 59° S 23:02:23 74° ESE 23:09:27 10° NE
USA 238 3.6 23:01:14 60° S 23:02:29 74° ESE 23:09:33 10° NE
IGS 5A 4.3 23:04:05 47° N 23:04:05 47° N 23:07:06 10° N
CZ-4C R/B 4.3 23:12:00 13° ENE 23:12:00 13° ENE 23:12:48 10° ENE
Lacrosse 4 Rocket 3.7 23:15:32 17° W 23:17:07 21° WNW 23:20:15 10° N
H-2A R/B 2.4 23:18:56 56° WNW 23:18:56 56° WNW 23:23:26 10° NNW
Cosmos-2242 4.2 23:22:16 10° NNW 23:25:25 41° NW 23:25:25 41° NW
Cosmos 1943 Rocket 2.3 23:22:52 10° NNW 23:27:52 73° NNW 23:27:52 73° NNW
Cosmos 1850 Rocket 4.4 23:30:32 57° NNE 23:30:32 57° NNE 23:34:41 10° NNE
Cosmos 1570 Rocket 4.4 23:25:56 10° NNW 23:30:26 58° NNE 23:30:26 58° NNE
Cosmos 1607 3.9 23:40:55 80° NW 23:40:55 80° NW 23:47:05 10° NNE
Cosmos 1656 Rocket 4.2 23:37:43 10° NNW 23:42:37 53° NE 23:42:37 53° NE
Meteor 2-5 Rocket 4.1 23:48:01 63° NNE 23:48:01 63° NNE 23:52:53 10° NNE
Cosmos 1140 Rocket 4.4 23:48:52 43° WNW 23:48:52 43° WNW 23:53:43 10° N
